Retour au catalogue

STARLINK-4658

ActifCommunicationsVLEO
NORAD 53612·PAYLOAD·🇺🇸 United States

Lancé Aug 28, 2022 depuis Cape Canaveral Space Force Station

Loading…

Prochains Passages (prochaines 24 heures)

TLE

FraisSource: CelesTrak SupGP

Époque: Sep 15, 2026, 02:20 UTC

1 53612C 22104AA  26258.09770833 -.00004058  00000+0 -11611-3 0  2585
2 53612  53.1574  93.2005 0001166  84.2288 213.6520 15.35400354    19

Suivez STARLINK-4658 en temps réel avec AllMySat

Download on the App Store